Location: Passo di Treia
(43.2833°N, 13.3333°E)
Time: 05:02:18
(UTC+00:00)

Okean 1-7 - Pass Details

Date: 09 December 2019
Orbit: 590 x 619 km, 82.5° (Epoch: 27 January)

Event Time Altitude Azimuth Distance (km) Brightness Sun altitude
Rises 17:23:55 0° 188° (S) 2,841 6.7 -19.8°
Reaches altitude 10° 17:26:06 10° 189° (S) 1,948 5.9 -20.2°
Maximum altitude 17:30:25 85° 278° (W) 618 3.0 -21.0°
Enters shadow 17:33:04 24° 6° (N) 1,292 4.5 -21.4°
